[[{"header":{"parameterUnit":"m.s-1","parameterCategory":1,"la1":30.2991,"la2":30.254,"lo1":-89.0895,"lo2":-89.0444,"dy":0.0017,"dx":0.0017,"nx":28,"ny":28,"refTime":"2024-07-23T09:00:00:Z","depth":0,"parameterNumber":2,"parameterNumberName":"U-component_of_WINDS"},"data":[0,0,0,0,0,0,0,0,0,0,0,0,0,0,0,0,0,0,0,0,0,0,0,0,0,0,0,0,0,0,0,0,0,0,0,0,0,0,0,0,0,0,0,0,0,0,0,0,0,0,0,0,0,0,0,0,0,0,1.6556,1.6557,0,1.6649,1.665,1.6651,1.6678,1.6677,1.6677,1.6676,1.6767,1.677,1.6773,0,0,0,0,0,0,0,0,0,0,0,0,0,1.6396,1.6399,1.6556,1.6557,1.6558,1.6649,1.665,1.6651,1.6678,1.6677,1.6677,1.6676,1.6767,1.677,1.6773,0,0,0,0,0,0,0,0,0,0,0,0,0,1.6475,1.64,1.6556,1.6583,1.6586,1.6648,1.665,1.6651,1.6678,1.6677,1.6676,1.6676,1.6765,1.677,1.6774,1.6815,0,0,1.6787,1.6789,0,0,0,0,0,0,0,0,1.647,1.6481,1.6577,1.6581,1.6585,1.6651,1.6627,1.6706,1.6678,1.6643,1.6676,1.6675,1.6729,1.6736,1.6755,1.6819,1.6823,1.6787,1.679,1.6792,1.6793,0,0,0,0,0,0,0,1.6465,1.6477,1.6593,1.6579,1.6583,1.6588,1.6598,1.6642,1.6689,1.6646,1.6648,1.6659,1.6731,1.6751,1.6758,1.6825,1.6787,1.6791,1.6794,1.6796,1.6924,1.6925,0,0,0,0,0,0,1.6456,1.6472,1.659,1.6595,1.6525,1.6592,1.6603,1.663,1.6688,1.6697,1.6659,1.666,1.6744,1.6752,1.6761,1.6811,1.6792,1.6796,1.6798,1.6923,1.6924,1.6925,0,0,0,0,0,0,1.6452,1.6466,1.6586,1.6534,1.655,1.6595,1.6625,1.6633,1.6653,1.6699,1.6707,1.6672,1.6744,1.6755,1.6801,1.6815,1.6798,1.6802,1.6922,1.6924,1.6925,1.6913,0,0,0,0,0,0,1.6447,1.6464,1.6482,1.6535,1.6553,1.6626,1.6626,1.6635,1.6661,1.6662,1.6712,1.672,1.6744,1.6794,1.6805,1.682,1.6805,1.6921,1.6923,1.6924,1.6913,1.6914,1.6915,0,0,0,0,0,1.6442,1.6475,1.6483,1.6497,1.6576,1.6627,1.6637,1.6665,1.6662,1.6679,1.6708,1.6718,1.6812,1.6799,1.6811,1.6828,1.6921,1.6923,1.6924,1.6912,1.6914,1.6915,0,0,0,0,0,0,1.6422,1.6482,1.6492,1.6543,1.658,1.6631,1.6654,1.6666,1.6704,1.6703,1.6735,1.6746,1.679,1.6814,1.6799,1.6869,1.6866,1.6871,1.6852,1.6854,1.6856,1.6848,1.6809,0,0,0,0,0,1.6424,1.6462,1.6512,1.6552,1.657,1.6609,1.6632,1.665,1.6689,1.6704,1.6737,1.6772,1.6809,1.6833,1.687,1.6916,1.6926,1.6933,1.6934,1.6935,1.6938,1.6962,1.6965,1.6931,1.6931,1.6931,0,0,1.6427,1.6465,1.6487,1.6549,1.658,1.6616,1.6622,1.6661,1.6687,1.671,1.6755,1.678,1.6822,1.6867,1.6889,1.6889,1.695,1.6938,1.6938,1.6941,1.6964,1.6967,1.697,1.6933,1.6932,1.6932,0,0,1.6453,1.6486,1.6522,1.6553,1.6599,1.6624,1.6632,1.6682,1.6699,1.6746,1.6763,1.6794,1.6858,1.6887,1.6909,1.6943,1.6953,1.6954,1.696,1.6983,1.6985,1.6988,1.6998,1.7001,1.6957,1.6957,1.6957,0,1.6451,1.6509,1.6539,1.6577,1.6603,1.6625,1.6661,1.6688,1.6743,1.676,1.6759,1.6838,1.6868,1.6919,1.6927,1.6946,1.6954,1.6948,1.6983,1.6986,1.6988,1.6998,1.7002,1.6957,1.6957,1.6957,1.6957,0,1.6503,1.6543,1.6566,1.662,1.6648,1.6684,1.6718,1.6743,1.6758,1.6783,1.6828,1.6865,1.6908,1.6922,1.6937,1.6975,1.6973,1.6977,1.6974,1.6991,1.7,1.7005,1.6956,1.6956,1.6956,1.6956,0,0,1.6519,1.6588,1.6596,1.662,1.6672,1.6702,1.6738,1.6781,1.6801,1.6838,1.6867,1.692,1.6924,1.6949,1.6968,1.6988,1.7009,1.6989,1.699,1.699,1.705,1.7046,1.7051,1.7017,1.7017,1.7018,1.7046,0,1.655,1.6618,1.6645,1.6699,1.6734,1.6755,1.6786,1.682,1.6843,1.6875,1.69,1.6936,1.6939,1.6954,1.6975,1.7002,1.7021,1.7001,1.7043,1.7044,1.7031,1.7056,1.7052,1.7077,1.7051,1.7051,1.7052,0,1.6595,1.6633,1.669,1.6736,1.6751,1.6779,1.682,1.6851,1.6889,1.6904,1.6932,1.6949,1.6985,1.698,1.703,1.7015,1.7033,1.7049,1.705,1.7055,1.7048,1.706,1.7086,1.709,1.7059,1.7058,1.7058,0,1.6599,1.6664,1.6706,1.6726,1.678,1.6799,1.6822,1.686,1.6883,1.6918,1.6934,1.6972,1.6993,1.7021,1.7047,1.7041,1.7093,1.7091,1.7105,1.7105,1.7115,1.7114,1.7144,1.7129,1.7129,1.7128,1.7128,0,1.6629,1.6663,1.6708,1.6734,1.6772,1.6802,1.6838,1.6862,1.6895,1.6924,1.6944,1.6971,1.7004,1.7034,1.7055,1.7091,1.7101,1.7113,1.7117,1.7111,1.7109,1.7123,1.7121,1.7129,1.7129,1.7129,1.7129,0,1.664,1.6672,1.6719,1.6766,1.6779,1.6804,1.6844,1.6869,1.6893,1.693,1.694,1.6977,1.7013,1.7042,1.709,1.7103,1.7141,1.7147,1.7129,1.7131,1.7144,1.7141,1.7183,1.7189,1.717,1.717,1.717,0,1.6657,1.6683,1.6734,1.6755,1.6779,1.6814,1.6838,1.6868,1.6892,1.6936,1.6954,1.6993,1.7025,1.7082,1.7112,1.7148,1.7154,1.7166,1.7159,1.7151,1.7152,1.715,1.7152,1.7166,1.7166,1.7166,1.7166,0,1.6683,1.6697,1.6732,1.6772,1.68,1.6833,1.6866,1.6882,1.6917,1.6943,1.6981,1.7006,1.7054,1.7091,1.713,1.7152,1.7164,1.7168,1.7173,1.7166,1.7154,1.7159,1.713,1.7167,1.7167,1.7167,1.7167,1.7167,1.6696,1.672,1.6759,1.6796,1.6824,1.6854,1.6879,1.6906,1.6939,1.6982,1.6997,1.7035,1.707,1.7124,1.7146,1.7175,1.7176,1.7184,1.7185,1.7186,1.7185,1.7149,1.7182,1.7182,1.7182,1.7182,1.7182,0,1.6722,1.6748,1.6782,1.6828,1.6857,1.6867,1.6903,1.6926,1.6961,1.6993,1.7024,1.7067,1.7102,1.7134,1.7171,1.7188,1.7194,1.7196,1.7195,1.72,1.7183,1.7174,1.7191,1.7191,1.7191,1.7191,1.7191,1.7191,1.6739,1.6779,1.6797,1.6851,1.6876,1.6915,1.6935,1.6961,1.6987,1.7034,1.7064,1.7086,1.7117,1.7156,1.7188,1.7197,1.7208,1.7209,1.7218,1.7202,1.7201,1.72,1.7192,1.7211,1.7211,1.7233,1.7233,1.7233]},{"header":{"parameterUnit":"m.s-1","parameterCategory":1,"la1":30.2991,"la2":30.254,"lo1":-89.0895,"lo2":-89.0444,"dy":0.0017,"dx":0.0017,"nx":28,"ny":28,"refTime":"2024-07-23T09:00:00:Z","depth":0,"parameterNumber":3,"parameterNumberName":"V-component_of_WINDS"},"data":[0,0,0,0,0,0,0,0,0,0,0,0,0,0,0,0,0,0,0,0,0,0,0,0,0,0,0,0,0,0,0,0,0,0,0,0,0,0,0,0,0,0,0,0,0,0,0,0,0,0,0,0,0,0,0,0,0,0,3.2719,3.272,0,3.2766,3.2766,3.2767,3.272,3.2718,3.2716,3.2714,3.2761,3.2763,3.2766,0,0,0,0,0,0,0,0,0,0,0,0,0,3.2587,3.259,3.2719,3.272,3.272,3.2765,3.2766,3.2767,3.272,3.2718,3.2715,3.2713,3.276,3.2763,3.2767,0,0,0,0,0,0,0,0,0,0,0,0,0,3.264,3.2591,3.2719,3.2702,3.2701,3.2765,3.2766,3.2767,3.272,3.2718,3.2715,3.2712,3.2758,3.2763,3.2767,3.2849,0,0,3.2781,3.2782,0,0,0,0,0,0,0,0,3.2637,3.2645,3.2704,3.2704,3.2703,3.2734,3.2736,3.2794,3.2721,3.2713,3.2714,3.2711,3.2754,3.2758,3.2773,3.2851,3.2853,3.2781,3.2784,3.2786,3.2787,0,0,0,0,0,0,0,3.2633,3.2643,3.2737,3.2705,3.2704,3.2692,3.2696,3.2747,3.2748,3.2714,3.271,3.2717,3.2753,3.2769,3.2774,3.2854,3.2781,3.2785,3.2787,3.2789,3.2998,3.3001,0,0,0,0,0,0,3.2632,3.264,3.2736,3.2739,3.2662,3.2696,3.2701,3.2727,3.2748,3.2748,3.2719,3.2714,3.2763,3.2769,3.2775,3.287,3.2785,3.279,3.2792,3.2995,3.2999,3.3002,0,0,0,0,0,0,3.2629,3.2641,3.2734,3.2688,3.2699,3.2701,3.273,3.2729,3.2745,3.2752,3.2751,3.2735,3.2761,3.2769,3.283,3.2871,3.2792,3.2796,3.2992,3.2996,3.3,3.3062,0,0,0,0,0,0,3.2626,3.264,3.2673,3.269,3.2702,3.279,3.2733,3.2732,3.2753,3.2747,3.2767,3.2768,3.2759,3.2824,3.2835,3.2876,3.2799,3.2988,3.2994,3.2999,3.3056,3.3068,3.3078,0,0,0,0,0,3.2621,3.2689,3.2674,3.2686,3.2743,3.2792,3.2799,3.2789,3.2757,3.2788,3.2792,3.2767,3.2865,3.2831,3.2842,3.2885,3.2985,3.2992,3.2998,3.3052,3.3066,3.3078,0,0,0,0,0,0,3.2677,3.2691,3.2675,3.2751,3.277,3.2784,3.2824,3.2805,3.2834,3.2827,3.2813,3.2818,3.2882,3.289,3.2851,3.2964,3.292,3.2929,3.2956,3.297,3.298,3.2976,3.2803,0,0,0,0,0,3.2698,3.2738,3.2748,3.2813,3.2824,3.2822,3.2844,3.2833,3.2853,3.2862,3.287,3.289,3.2924,3.2948,3.2981,3.3058,3.3059,3.3093,3.3103,3.3112,3.312,3.3158,3.3171,3.3023,3.3023,3.3023,0,0,3.2742,3.2755,3.2781,3.2825,3.2839,3.2879,3.283,3.2875,3.2904,3.2868,3.2926,3.2933,3.2953,3.3022,3.3053,3.3031,3.3161,3.3121,3.3128,3.313,3.3166,3.318,3.3192,3.3028,3.3027,3.3026,0,0,3.2842,3.2857,3.2911,3.2926,3.2948,3.2946,3.2959,3.2975,3.2978,3.3035,3.3008,3.3042,3.3104,3.3119,3.3134,3.3237,3.3214,3.3248,3.3304,3.3341,3.3352,3.3363,3.3396,3.3409,3.3256,3.3256,3.3256,0,3.2894,3.2954,3.2942,3.2988,3.3007,3.2976,3.3029,3.3044,3.3076,3.3089,3.3064,3.3138,3.315,3.322,3.3245,3.326,3.3272,3.3245,3.3352,3.3362,3.3371,3.3403,3.3416,3.326,3.3259,3.3259,3.3259,0,3.3015,3.3057,3.3098,3.3128,3.3151,3.3201,3.3195,3.322,3.3207,3.3208,3.3265,3.3278,3.3311,3.3328,3.3317,3.3395,3.338,3.3354,3.3309,3.3389,3.3419,3.3431,3.3265,3.3264,3.3263,3.3262,0,0,3.3152,3.3173,3.3188,3.3199,3.322,3.3252,3.3299,3.3331,3.3351,3.3374,3.3411,3.3463,3.3438,3.3455,3.3445,3.3478,3.3555,3.3448,3.3448,3.3465,3.3639,3.3656,3.3671,3.354,3.3543,3.3545,3.3636,0,3.325,3.3332,3.3321,3.3399,3.3436,3.3406,3.3446,3.3463,3.3464,3.3494,3.3495,3.353,3.3496,3.3506,3.3537,3.3539,3.3589,3.3532,3.3573,3.3575,3.3567,3.3687,3.3707,3.3792,3.3648,3.365,3.3651,0,3.3377,3.3402,3.3483,3.3495,3.3509,3.3547,3.3573,3.3603,3.362,3.3618,3.3637,3.362,3.3665,3.362,3.3681,3.3643,3.3659,3.3662,3.3665,3.3667,3.3616,3.3689,3.382,3.3832,3.367,3.3668,3.3667,0,3.3465,3.3519,3.3574,3.3585,3.3601,3.3627,3.3635,3.3649,3.3668,3.3691,3.3703,3.3732,3.3747,3.3769,3.3759,3.3728,3.3821,3.3776,3.3818,3.3819,3.3838,3.3837,3.397,3.3853,3.3852,3.3852,3.3852,0,3.3574,3.3625,3.3613,3.3647,3.3701,3.3687,3.3741,3.3745,3.3758,3.379,3.3767,3.3797,3.3784,3.3814,3.3807,3.3856,3.3864,3.3862,3.3859,3.3863,3.3863,3.3872,3.3865,3.3855,3.3855,3.3854,3.3853,0,3.3682,3.3677,3.3734,3.3743,3.3746,3.3786,3.3793,3.3824,3.3822,3.3863,3.3872,3.3869,3.3903,3.3896,3.3933,3.3928,3.3989,3.398,3.3983,3.398,3.4022,3.4017,3.4164,3.4181,3.4055,3.4056,3.4057,0,3.3751,3.3788,3.3801,3.3821,3.383,3.3863,3.3881,3.3869,3.3889,3.3909,3.3936,3.3967,3.3991,3.4045,3.4046,3.4073,3.4063,3.4113,3.4067,3.4069,3.4061,3.4057,3.406,3.4121,3.4123,3.4124,3.4125,0,3.3873,3.3868,3.3896,3.3922,3.3944,3.3965,3.3982,3.4,3.3988,3.4012,3.4045,3.4063,3.41,3.413,3.4155,3.4161,3.4141,3.414,3.415,3.4153,3.4152,3.415,3.4005,3.4136,3.4135,3.4134,3.4133,3.4133,3.3962,3.3992,3.4005,3.4036,3.4047,3.4064,3.4092,3.4093,3.412,3.4148,3.4139,3.4176,3.4189,3.422,3.423,3.4258,3.4239,3.4255,3.4259,3.4263,3.4266,3.415,3.4263,3.4262,3.4262,3.4262,3.4261,0,3.408,3.4086,3.4115,3.4139,3.4163,3.4141,3.4159,3.418,3.4213,3.4226,3.425,3.4286,3.4315,3.4317,3.4343,3.4365,3.4356,3.4372,3.4369,3.4371,3.4283,3.427,3.4379,3.4379,3.4379,3.4379,3.4379,3.4379,3.4145,3.4194,3.419,3.4244,3.4249,3.4285,3.4297,3.4311,3.4321,3.4363,3.4386,3.4387,3.4396,3.4422,3.4446,3.4446,3.4456,3.4475,3.4471,3.4389,3.4377,3.4366,3.4353,3.4478,3.4478,3.4556,3.4556,3.4557]}]]